TITAN 3C TRANSTAGE DEB, 59978

Orbit data source: Space-Track

TITAN 3C TRANSTAGE DEB, 59978 is space debris in GEO originally from a launch on Thu, 26 Sep 1968 UTC launched from the Air Force Eastern Test Range (AFETR). Debris objects in space refer to the collection of defunct objects orbiting the Earth. Examples of debris include non-operational satellites, rocket bodies, and fragments generated from explosions, collisions, or faulty payload assembly.

Not visible in the next 10 days
Identifier
59978, 1968-081AL
Orbit
GEO
Country
Flag of USUS
Related business
Manufacturer
Unknown
Mission
Spacecraft
Bus & Motor
Unknown
Mass
Unknown
Launch date (UTC)
1968-09-26 (57 years ago)
Launch vehicle
Unknown
Launch site
Air Force Eastern Test Range (AFETR)
Object type
Payload
Rocket body
Debris
Shape & HBR
Unknown
Radar Cross Section
RCS unknown

Expand to show TLE details & history
Last TLE update: 2 days ago

TLE from 2 days ago
0 TITAN 3C TRANSTAGE DEB
1 59978U 68081AL  25258.96161915 -.00000248  00000-0  00000-0 0  9996
2 59978   1.6111  50.5966 0085240 236.1463 123.6940  1.02048197 27012
Epoch: 2025-09-15T23:04Z
TLE epoch observation values (Epoch: 2025-09-15T23:04:43.894Z)
Latitude
Longitude
69.9005°
Altitude
35,492.976 km
Speed
3.078 km/s
True Right ascension
03h 24m 58s
True Declination
0° 00' 00"
Sunlit
Object was in daylight at epoch
Visualization orbit readout
Latitude
Unknown
Longitude
Unknown
Altitude
Unknown
Speed
Unknown
Apparent Right ascension
Unknown
Apparent Declination
Unknown
Sunlit
N/A
Visualization observer readout
Local Sidereal Time
18:33:51
Azimuth
Unknown
Elevation
Unknown
Doppler factor
Unknown
Orbital elements
Apogee altitude
35,652.16 km
Perigee altitude
34,941.683 km
Semi-major axis
41,675.059 km
Eccentricity
0.00852
Inclination
1.6111°
RAAN
50.5966°
Arg. of periapsis
236.1463°
True anomaly
124.50189°
Mean anomaly
123.694°
Eccentric anomaly
124.09842°
Mean motion
0.25511 °/min
Orbital period
1,411.15 mins
BSTAR
0
Loading maneuver chart data...
Computing Atmospheric mass density...

Documentation

Showing up to 5 results
|